TimeCST,TemperatureF,Dew PointF,Humidity,Sea Level PressureIn,VisibilityMPH,Wind Direction,Wind SpeedMPH,Gust SpeedMPH,PrecipitationIn,Events,Conditions,WindDirDegrees,DateUTC
6:55 AM,64.4,57.2,77,29.71,10.0,South,18.4,23.0,N/A,,Scattered Clouds,180,2013-01-29 12:55:00
7:15 AM,64.4,57.2,77,29.71,10.0,South,13.8,28.8,N/A,,Mostly Cloudy,180,2013-01-29 13:15:00
12:15 PM,64.4,60.8,88,29.55,7.0,WSW,10.4,-,N/A,Thunderstorm,Thunderstorm,240,2013-01-29 18:15:00
1:35 PM,66.2,60.8,83,29.51,10.0,South,15.0,21.9,N/A,,Overcast,190,2013-01-29 19:35:00
2:15 PM,64.4,57.2,77,29.50,10.0,North,6.9,-,N/A,,Overcast,360,2013-01-29 20:15:00
2:55 PM,55.4,51.8,88,29.48,9.0,North,12.7,-,N/A,Thunderstorm,Thunderstorm,360,2013-01-29 20:55:00
3:15 PM,55.4,51.8,88,29.47,5.0,NNE,5.8,-,N/A,Thunderstorm,Overcast,30,2013-01-29 21:15:00
3:35 PM,55.4,51.8,88,29.49,4.0,North,10.4,-,N/A,,Overcast,10,2013-01-29 21:35:00
3:55 PM,53.6,51.8,94,29.51,9.0,North,6.9,-,0.65,Thunderstorm,Mostly Cloudy,350,2013-01-29 21:55:00
4:15 PM,53.6,51.8,94,29.52,10.0,North,5.8,-,0.06,,Mostly Cloudy,360,2013-01-29 22:15:00
4:35 PM,53.6,51.8,94,29.49,10.0,North,8.1,-,0.10,,Overcast,10,2013-01-29 22:35:00
5:15 PM,53.6,51.8,94,29.51,7.0,East,5.8,-,N/A,,Overcast,90,2013-01-29 23:15:00
5:35 PM,53.6,51.8,94,29.50,10.0,Calm,Calm,-,N/A,,Overcast,0,2013-01-29 23:35:00
5:56 PM,53.6,51.8,94,29.53,8.0,ESE,4.6,-,N/A,,Overcast,110,2013-01-29 23:56:00
6:15 PM,53.6,51.8,94,29.53,9.0,East,8.1,-,N/A,,Overcast,80,2013-01-30 00:15:00
6:35 PM,53.6,50.0,88,29.53,8.0,ESE,6.9,-,N/A,,Mostly Cloudy,110,2013-01-30 00:35:00
6:55 PM,53.6,50.0,88,29.53,7.0,ESE,5.8,-,N/A,,Mostly Cloudy,120,2013-01-30 00:55:00
7:15 PM,53.6,50.0,88,29.50,9.0,ESE,8.1,-,N/A,,Mostly Cloudy,120,2013-01-30 01:15:00
7:55 PM,53.6,50.0,88,29.49,10.0,ESE,8.1,-,0.10,,Overcast,120,2013-01-30 01:55:00
8:15 PM,53.6,48.2,82,29.49,10.0,SE,8.1,-,0.02,,Overcast,140,2013-01-30 02:15:00
8:36 PM,51.8,48.2,88,29.48,10.0,SSE,5.8,-,0.06,,Mostly Cloudy,150,2013-01-30 02:36:00
8:55 PM,51.8,48.2,88,29.48,10.0,South,5.8,-,0.10,,Overcast,180,2013-01-30 02:55:00
9:15 PM,51.8,48.2,88,29.48,10.0,South,9.2,-,0.04,,Overcast,190,2013-01-30 03:15:00
9:35 PM,51.8,48.2,88,29.55,10.0,WNW,17.3,31.1,0.06,,Overcast,290,2013-01-30 03:35:00
9:55 PM,48.2,44.6,87,29.56,10.0,West,15.0,19.6,0.08,,Overcast,280,2013-01-30 03:55:00
10:35 PM,46.4,42.8,87,29.50,10.0,Calm,Calm,-,0.01,,Overcast,0,2013-01-30 04:35:00
11:35 PM,46.4,44.6,93,29.49,10.0,SW,5.8,-,0.01,,Overcast,220,2013-01-30 05:35:00